Location: ???????
(52.3000°N, 54.4667°E)
Time: 21:14:58
(UTC+00:00)

ADEOS Rocket - Pass Details

Date: 24 January 2020
Orbit: 859 x 1306 km, 98.7° (Epoch: 17 February)

Event Time Altitude Azimuth Distance (km) Brightness Sun altitude
Rises 14:08:27 0° 22° (NNE) 3,796 5.7 -11.3°
Reaches altitude 10° 14:11:25 10° 36° (NE) 2,911 5.0 -11.8°
Maximum altitude 14:16:46 25° 90° (E) 2,122 4.2 -12.5°
Drops below altitude 10° 14:22:28 10° 143° (SE) 3,144 5.4 -13.4°
Sets 14:25:47 0° 156° (SSE) 4,165 6.2 -13.9°
